Current Conditions
Mostly Clear
Conditions



Pressure
1009.92 (hPa) - 29.82 (inHG)
Visibility

10.0 (km) - 6.2 (miles)
Temperature
27  °C
Temperature
11  °C
Dewpoint
37  %
 Humidity
Wind Speed
29  km/h
16  kts
18  mph
8.0  m/s
Wind Direction
N
45°
E
90°
135°
S
180°
225°
W
270°
315°
 120°

East South
East
Airport Data
YPPH
Perth International Airport
Metar :YPPH 311330Z 12016G27KT CAVOK 27/11 Q1010
Tue 31st January 21:30 pm
Raw Metar Info
Raw METAR is the most common format in the world for the transmission of observational weather data. It is highly standardized through the International Civil Aviation Organization (ICAO), which allows it to be understood throughout most of the world.
API Info
Data Provided by
https://www.checkwx.com/weather/YPPH

Aviation Weather providing METAR, TAF, AIRMET, SIGMET and OUTLOOK Weather Reports
© Info
CSS/SVG/PHP scripts were developed by weather34 for use in the weather34 template © 2015-2023

Guide Info provided by Metar-Wikipedia